Location: Newark
(43.6583°N, 1.6617°E)
Time: 08:23:10
(UTC+00:00)

Tiros 1 - Pass Details

Date: 03 September 2019
Orbit: 630 x 664 km, 48.4° (Epoch: 16 October)

Event Time Altitude Azimuth Distance (km) Brightness Sun altitude
Rises 02:46:35 0° 283° (WNW) 2,923 - -25.4°
Reaches altitude 10° 02:49:59 10° 257° (WSW) 2,015 - -24.9°
Maximum altitude 02:52:15 14° 227° (SW) 1,789 - -24.6°
Drops below altitude 10° 02:54:31 10° 198° (SSW) 2,018 - -24.3°
Sets 02:57:56 0° 172° (S) 2,930 - -23.8°
